SWA2447 KMCO-KPBI

Flight info

Callsign SWA2447
Flight time 0h 34m
Altitude 17000
Route DDANY3 BORRD CPTAN3
Aircraft B738/M-SDE2E3FGHIRWXY/LB1

Departure

Time 2026-04-20 03:58
Airport Orlando International Airport (KMCO)

Arrival

Time 2026-04-20 04:32
Airport Palm Beach International Airport (KPBI)
Time Latitude Longitude Altitude Speed Heading
2026-04-20 03:39 28.43552 -81.30047 100 ft 0 kts 253°
2026-04-20 03:48 28.43555 -81.30032 100 ft 2 kts 253°
2026-04-20 03:49 28.43560 -81.30014 100 ft 2 kts 253°
2026-04-20 03:49 28.43565 -81.29997 99 ft 2 kts 246°
2026-04-20 03:49 28.43574 -81.29982 100 ft 2 kts 191°
2026-04-20 03:49 28.43582 -81.29981 98 ft 1 kts 163°
2026-04-20 03:50 28.43585 -81.29982 97 ft 0 kts 162°
2026-04-20 03:51 28.43582 -81.29981 98 ft 2 kts 162°
2026-04-20 03:51 28.43537 -81.29964 100 ft 11 kts 162°
2026-04-20 03:51 28.43456 -81.29891 99 ft 18 kts 120°
2026-04-20 03:51 28.43386 -81.29803 102 ft 17 kts 180°
2026-04-20 03:52 28.43258 -81.29803 102 ft 20 kts 179°
2026-04-20 03:52 28.43111 -81.29801 102 ft 22 kts 179°
2026-04-20 03:52 28.42946 -81.29799 102 ft 25 kts 179°
2026-04-20 03:52 28.42764 -81.29797 102 ft 27 kts 180°
2026-04-20 03:53 28.42572 -81.29797 102 ft 28 kts 179°
2026-04-20 03:53 28.42373 -81.29794 101 ft 29 kts 180°
2026-04-20 03:53 28.42174 -81.29794 101 ft 28 kts 180°
2026-04-20 03:53 28.41987 -81.29789 101 ft 26 kts 179°
2026-04-20 03:54 28.41810 -81.29788 101 ft 25 kts 179°
2026-04-20 03:54 28.41646 -81.29787 101 ft 23 kts 180°
2026-04-20 03:54 28.41486 -81.29785 101 ft 22 kts 179°
2026-04-20 03:54 28.41332 -81.29783 100 ft 22 kts 179°
2026-04-20 03:55 28.41185 -81.29781 100 ft 21 kts 179°
2026-04-20 03:55 28.41040 -81.29781 100 ft 21 kts 180°
2026-04-20 03:55 28.40900 -81.29779 99 ft 20 kts 179°
2026-04-20 03:55 28.40820 -81.29693 98 ft 17 kts 91°
2026-04-20 03:56 28.40843 -81.29570 97 ft 16 kts 38°
2026-04-20 03:56 28.40884 -81.29561 97 ft 0 kts
2026-04-20 03:56 28.40887 -81.29561 97 ft 5 kts
2026-04-20 03:56 28.41128 -81.29566 100 ft 67 kts 359°
2026-04-20 03:57 28.41796 -81.29569 103 ft 124 kts 359°
2026-04-20 03:57 28.42817 -81.29588 164 ft 165 kts
2026-04-20 03:57 28.44049 -81.29529 517 ft 190 kts
2026-04-20 03:57 28.45390 -81.29040 674 ft 218 kts 27°
2026-04-20 03:58 28.46606 -81.27901 936 ft 238 kts 52°
2026-04-20 03:58 28.47576 -81.26313 1452 ft 248 kts 54°
2026-04-20 03:58 28.48555 -81.24692 2307 ft 248 kts 54°
2026-04-20 03:58 28.49547 -81.23054 3044 ft 255 kts 54°
2026-04-20 03:59 28.50415 -81.21274 3732 ft 263 kts 72°
2026-04-20 03:59 28.50795 -81.19235 4474 ft 265 kts 79°
2026-04-20 03:59 28.51109 -81.17159 4857 ft 266 kts 86°
2026-04-20 03:59 28.50844 -81.15062 5350 ft 273 kts 106°
2026-04-20 04:00 28.50335 -81.12960 6077 ft 277 kts 105°
2026-04-20 04:00 28.49846 -81.10849 6762 ft 282 kts 105°
2026-04-20 04:00 28.49343 -81.08641 7424 ft 287 kts 105°
2026-04-20 04:00 28.48845 -81.06463 8086 ft 291 kts 107°
2026-04-20 04:01 28.47920 -81.04417 8691 ft 295 kts 134°
2026-04-20 04:01 28.46398 -81.02857 9394 ft 297 kts 142°
2026-04-20 04:01 28.44766 -81.01382 10021 ft 302 kts 143°
2026-04-20 04:01 28.43076 -80.99881 10390 ft 318 kts 144°
2026-04-20 04:02 28.41272 -80.98273 10547 ft 340 kts 143°
2026-04-20 04:02 28.39359 -80.96554 10700 ft 361 kts 143°
2026-04-20 04:02 28.37344 -80.94730 11009 ft 375 kts 143°
2026-04-20 04:02 28.35293 -80.92865 11528 ft 380 kts 143°
2026-04-20 04:03 28.33222 -80.90978 12132 ft 383 kts 143°
2026-04-20 04:03 28.31133 -80.89077 12723 ft 387 kts 144°
2026-04-20 04:03 28.29053 -80.87160 13249 ft 393 kts 141°
2026-04-20 04:03 28.27345 -80.84696 13733 ft 405 kts 118°
2026-04-20 04:04 28.26246 -80.81730 14287 ft 409 kts 113°
2026-04-20 04:04 28.25216 -80.78705 14765 ft 414 kts 113°
2026-04-20 04:04 28.24159 -80.75648 15238 ft 418 kts 113°
2026-04-20 04:04 28.23067 -80.72574 15731 ft 421 kts 114°
2026-04-20 04:05 28.21942 -80.69496 16222 ft 424 kts 117°
2026-04-20 04:05 28.20296 -80.66734 16646 ft 422 kts 138°
2026-04-20 04:05 28.18019 -80.64668 17013 ft 421 kts 150°
2026-04-20 04:05 28.15578 -80.62818 16972 ft 421 kts 151°
2026-04-20 04:06 28.13143 -80.61014 16953 ft 415 kts 151°
2026-04-20 04:06 28.10758 -80.59239 16959 ft 403 kts 151°
2026-04-20 04:06 28.08460 -80.57509 16955 ft 391 kts 151°
2026-04-20 04:06 28.06230 -80.55816 16964 ft 383 kts 151°
2026-04-20 04:07 28.04018 -80.54132 16962 ft 384 kts 150°
2026-04-20 04:07 28.01799 -80.52439 16977 ft 384 kts 150°
2026-04-20 04:07 27.99605 -80.50763 16984 ft 385 kts 150°
2026-04-20 04:07 27.97386 -80.49067 16995 ft 386 kts 150°
2026-04-20 04:08 27.95162 -80.47368 16999 ft 386 kts 150°
2026-04-20 04:08 27.92933 -80.45667 16999 ft 386 kts 150°
2026-04-20 04:08 27.90619 -80.44163 16985 ft 381 kts 162°
2026-04-20 04:08 27.88145 -80.43137 17003 ft 378 kts 166°
2026-04-20 04:09 27.85647 -80.42197 16996 ft 378 kts 167°
2026-04-20 04:09 27.83154 -80.41262 16997 ft 378 kts 166°
2026-04-20 04:09 27.80666 -80.40308 16997 ft 378 kts 166°
2026-04-20 04:09 27.78182 -80.39333 16996 ft 378 kts 165°
2026-04-20 04:10 27.75699 -80.38347 16998 ft 378 kts 165°
2026-04-20 04:10 27.73220 -80.37355 16998 ft 377 kts 165°
2026-04-20 04:10 27.70784 -80.36379 16991 ft 377 kts 164°
2026-04-20 04:10 27.68307 -80.35388 16997 ft 377 kts 164°
2026-04-20 04:11 27.65836 -80.34387 16981 ft 378 kts 162°
2026-04-20 04:11 27.63389 -80.33200 16464 ft 386 kts 158°
2026-04-20 04:11 27.60973 -80.31887 16098 ft 385 kts 157°
2026-04-20 04:11 27.58568 -80.30558 15686 ft 384 kts 158°
2026-04-20 04:12 27.56172 -80.29252 15289 ft 382 kts 158°
2026-04-20 04:12 27.53779 -80.27971 14893 ft 380 kts 158°
2026-04-20 04:12 27.51391 -80.26708 14492 ft 379 kts 158°
2026-04-20 04:12 27.49006 -80.25452 14091 ft 377 kts 158°
2026-04-20 04:13 27.46629 -80.24202 13635 ft 376 kts 158°
2026-04-20 04:13 27.44284 -80.22967 13207 ft 368 kts 158°
2026-04-20 04:13 27.41984 -80.21755 12791 ft 361 kts 158°
2026-04-20 04:13 27.39733 -80.20570 12399 ft 354 kts 158°
2026-04-20 04:14 27.37555 -80.19424 12031 ft 347 kts 158°
2026-04-20 04:14 27.35377 -80.18280 11666 ft 345 kts 158°
2026-04-20 04:14 27.33197 -80.17135 11308 ft 345 kts 157°
2026-04-20 04:14 27.31024 -80.15994 10942 ft 344 kts 157°
2026-04-20 04:15 27.28852 -80.14853 10571 ft 344 kts 156°
2026-04-20 04:15 27.26686 -80.13717 10208 ft 343 kts 156°
2026-04-20 04:15 27.24543 -80.12610 9866 ft 333 kts 158°
2026-04-20 04:15 27.22490 -80.11612 9895 ft 311 kts 159°
2026-04-20 04:16 27.20547 -80.10681 9757 ft 296 kts 159°
2026-04-20 04:16 27.18691 -80.09790 9585 ft 285 kts 158°
2026-04-20 04:16 27.16885 -80.08919 9176 ft 282 kts 158°
2026-04-20 04:16 27.15079 -80.08047 8692 ft 283 kts 158°
2026-04-20 04:17 27.13284 -80.07178 8312 ft 279 kts 157°
2026-04-20 04:17 27.11530 -80.06313 7877 ft 279 kts 158°
2026-04-20 04:17 27.09753 -80.05432 7487 ft 277 kts 157°
2026-04-20 04:17 27.07995 -80.04560 7069 ft 276 kts 157°
2026-04-20 04:18 27.06232 -80.03686 6660 ft 276 kts 157°
2026-04-20 04:18 27.04485 -80.02821 6298 ft 272 kts 156°
2026-04-20 04:18 27.02756 -80.01965 5846 ft 273 kts 156°
2026-04-20 04:18 27.01016 -80.01105 5478 ft 271 kts 156°
2026-04-20 04:19 26.99298 -80.00257 5111 ft 269 kts 156°
2026-04-20 04:19 26.97585 -79.99411 4683 ft 269 kts 155°
2026-04-20 04:19 26.95803 -79.98850 4263 ft 267 kts 180°
2026-04-20 04:19 26.94029 -79.99351 4062 ft 266 kts 207°
2026-04-20 04:20 26.92474 -80.00469 4066 ft 270 kts 218°
2026-04-20 04:20 26.91006 -80.01769 4008 ft 269 kts 220°
2026-04-20 04:20 26.89556 -80.03070 4001 ft 265 kts 219°
2026-04-20 04:20 26.88109 -80.04344 3985 ft 263 kts 219°
2026-04-20 04:21 26.86670 -80.05594 3979 ft 261 kts 218°
2026-04-20 04:21 26.85235 -80.06833 3970 ft 259 kts 219°
2026-04-20 04:21 26.83821 -80.08056 3973 ft 255 kts 219°
2026-04-20 04:21 26.82442 -80.09257 3967 ft 247 kts 219°
2026-04-20 04:22 26.81564 -80.10036 3974 ft 239 kts 223°
2026-04-20 04:22 26.80588 -80.11988 3994 ft 218 kts 260°
2026-04-20 04:22 26.80403 -80.13666 3999 ft 220 kts 268°
2026-04-20 04:22 26.80289 -80.15407 4011 ft 228 kts 267°
2026-04-20 04:23 26.80173 -80.17186 4005 ft 230 kts 268°
2026-04-20 04:23 26.80050 -80.18969 3989 ft 229 kts 268°
2026-04-20 04:23 26.79927 -80.20735 3978 ft 226 kts 267°
2026-04-20 04:23 26.79800 -80.22481 3978 ft 224 kts 267°
2026-04-20 04:24 26.79675 -80.24222 3850 ft 225 kts 267°
2026-04-20 04:24 26.79550 -80.25964 3615 ft 225 kts 267°
2026-04-20 04:24 26.79424 -80.27683 3293 ft 225 kts 266°
2026-04-20 04:24 26.79272 -80.29442 3033 ft 225 kts 265°
2026-04-20 04:25 26.79107 -80.31205 3022 ft 229 kts 265°
2026-04-20 04:25 26.78866 -80.32967 2975 ft 228 kts 250°
2026-04-20 04:25 26.77880 -80.34292 3006 ft 227 kts 207°
2026-04-20 04:25 26.76364 -80.34702 3012 ft 230 kts 183°
2026-04-20 04:26 26.74765 -80.34747 2981 ft 228 kts 179°
2026-04-20 04:26 26.73187 -80.34752 2979 ft 226 kts 179°
2026-04-20 04:26 26.71627 -80.34734 2976 ft 223 kts 172°
2026-04-20 04:26 26.70253 -80.34032 3001 ft 220 kts 131°
2026-04-20 04:27 26.69728 -80.33067 3000 ft 221 kts 106°
2026-04-20 04:27 26.69427 -80.31397 2986 ft 214 kts 98°
2026-04-20 04:27 26.69213 -80.29826 2962 ft 194 kts 94°
2026-04-20 04:27 26.69106 -80.28390 2978 ft 182 kts 92°
2026-04-20 04:28 26.69035 -80.26976 2783 ft 182 kts 92°
2026-04-20 04:28 26.68972 -80.25593 2580 ft 174 kts 91°
2026-04-20 04:28 26.68914 -80.24279 2356 ft 166 kts 92°
2026-04-20 04:28 26.68857 -80.23009 2161 ft 162 kts 92°
2026-04-20 04:29 26.68801 -80.21737 1958 ft 162 kts 93°
2026-04-20 04:29 26.68746 -80.20489 1741 ft 158 kts 93°
2026-04-20 04:29 26.68692 -80.19268 1527 ft 157 kts 94°
2026-04-20 04:29 26.68637 -80.18047 1330 ft 157 kts 94°
2026-04-20 04:30 26.68588 -80.16825 1103 ft 158 kts 93°
2026-04-20 04:30 26.68539 -80.15593 873 ft 157 kts 94°
2026-04-20 04:30 26.68480 -80.14410 668 ft 154 kts 95°
2026-04-20 04:30 26.68415 -80.13198 473 ft 155 kts 94°
2026-04-20 04:31 26.68372 -80.12002 304 ft 157 kts 92°
2026-04-20 04:31 26.68321 -80.10780 134 ft 157 kts 93°
2026-04-20 04:31 26.68263 -80.09585 33 ft 148 kts 92°
2026-04-20 04:31 26.68228 -80.08674 28 ft 86 kts 92°
2026-04-20 04:32 26.68210 -80.08262 33 ft 22 kts 92°
2026-04-20 04:32 26.68251 -80.08162 35 ft 14 kts 13°
2026-04-20 04:32 26.68317 -80.08211 35 ft 13 kts 277°
2026-04-20 04:32 26.68323 -80.08313 32 ft 13 kts 271°
2026-04-20 04:33 26.68326 -80.08416 30 ft 14 kts 272°
2026-04-20 04:33 26.68330 -80.08534 30 ft 16 kts 272°
2026-04-20 04:33 26.68390 -80.08625 29 ft 17 kts 351°
2026-04-20 04:33 26.68493 -80.08710 26 ft 20 kts 316°
2026-04-20 04:34 26.68604 -80.08784 27 ft 16 kts 331°
2026-04-20 04:34 26.68702 -80.08821 27 ft 14 kts 349°
2026-04-20 04:34 26.68737 -80.08897 28 ft 9 kts 272°
2026-04-20 04:34 26.68738 -80.08907 28 ft 0 kts 272°